Time,TemperatureF,DewpointF,PressureIn,WindDirection,WindDirectionDegrees,WindSpeedMPH,WindSpeedGustMPH,Humidity,HourlyPrecipIn,Conditions,Clouds,dailyrainin,SolarRadiationWatts/m^2,SoftwareType,DateUTC
2017-07-28 00:00:00,63.8,58.9,29.94,NW,324,1.0,2.4,84,0.00,RA,,0.00,0.0,WeatherDisplay:10.37,2017-07-28 04:00:00,
2017-07-28 00:05:00,63.9,59.0,29.94,NW,325,4.3,4.6,84,0.00,RA,,0.00,0.0,WeatherDisplay:10.37,2017-07-28 04:05:00,
2017-07-28 00:10:00,64.1,58.8,29.94,NNW,329,3.4,6.0,83,0.00,CLR,,0.00,0.0,WeatherDisplay:10.37,2017-07-28 04:10:00,
2017-07-28 00:15:00,64.2,58.6,29.94,NNW,342,2.0,4.6,82,0.00,CLR,,0.00,0.0,WeatherDisplay:10.37,2017-07-28 04:15:00,
2017-07-28 00:20:00,64.3,58.7,29.94,NNE,26,4.1,6.9,82,0.00,CLR,,0.00,0.0,WeatherDisplay:10.37,2017-07-28 04:20:00,
2017-07-28 00:25:00,64.4,58.4,29.94,North,355,5.6,8.1,81,0.00,CLR,,0.00,0.0,WeatherDisplay:10.37,2017-07-28 04:25:00,
2017-07-28 00:30:00,64.4,58.4,29.94,NNE,18,7.3,10.4,81,0.00,CLR,,0.00,0.0,WeatherDisplay:10.37,2017-07-28 04:30:00,
2017-07-28 00:35:00,64.3,58.0,29.94,North,360,4.8,5.8,80,0.00,CLR,,0.00,0.0,WeatherDisplay:10.37,2017-07-28 04:35:00,
2017-07-28 00:40:00,64.2,57.9,29.94,North,360,4.3,6.0,80,0.00,CLR,,0.00,0.0,WeatherDisplay:10.37,2017-07-28 04:40:00,
2017-07-28 00:45:00,64.2,57.9,29.94,North,360,3.8,3.8,80,0.00,CLR,,0.00,0.0,WeatherDisplay:10.37,2017-07-28 04:45:00,
2017-07-28 00:50:00,64.1,57.8,29.94,NNE,19,7.0,9.2,80,0.00,CLR,,0.00,0.0,WeatherDisplay:10.37,2017-07-28 04:50:00,
2017-07-28 00:55:00,64.1,57.8,29.94,NE,38,5.6,6.9,80,0.00,CLR,,0.00,0.0,WeatherDisplay:10.37,2017-07-28 04:55:00,
2017-07-28 00:56:00,64.1,57.8,29.94,NE,38,4.8,7.2,80,0.00,CLR,,0.00,0.0,WeatherDisplay:10.37,2017-07-28 04:56:00,
2017-07-28 01:01:00,63.9,57.6,29.94,NE,34,5.7,10.4,80,0.00,CLR,,0.00,0.0,WeatherDisplay:10.37,2017-07-28 05:01:00,
2017-07-28 01:06:00,63.8,57.5,29.94,NNE,21,4.3,9.6,80,0.00,CLR,,0.00,0.0,WeatherDisplay:10.37,2017-07-28 05:06:00,
2017-07-28 01:11:00,63.7,57.4,29.94,NNE,12,5.2,9.2,80,0.00,CLR,,0.00,0.0,WeatherDisplay:10.37,2017-07-28 05:11:00,
2017-07-28 01:16:00,63.6,57.3,29.94,North,360,5.1,8.1,80,0.00,CLR,,0.00,0.0,WeatherDisplay:10.37,2017-07-28 05:16:00,
2017-07-28 01:21:00,63.5,57.2,29.95,NNE,32,3.0,5.8,80,0.00,CLR,,0.00,0.0,WeatherDisplay:10.37,2017-07-28 05:21:00,
2017-07-28 01:26:00,63.4,57.1,29.95,North,350,4.1,5.8,80,0.00,CLR,,0.00,0.0,WeatherDisplay:10.37,2017-07-28 05:26:00,
2017-07-28 01:31:00,63.3,57.0,29.95,NNE,17,2.6,4.6,80,0.00,CLR,,0.00,0.0,WeatherDisplay:10.37,2017-07-28 05:31:00,
2017-07-28 01:36:00,63.2,57.3,29.95,NNE,18,2.3,3.5,81,0.00,CLR,,0.00,0.0,WeatherDisplay:10.37,2017-07-28 05:36:00,
2017-07-28 01:41:00,63.1,57.2,29.95,NNE,15,3.4,4.6,81,0.00,CLR,,0.00,0.0,WeatherDisplay:10.37,2017-07-28 05:41:00,
2017-07-28 01:46:00,62.9,57.0,29.95,NNE,12,3.6,4.6,81,0.00,CLR,,0.00,0.0,WeatherDisplay:10.37,2017-07-28 05:46:00,
2017-07-28 01:51:00,62.8,56.9,29.95,NNE,24,3.2,3.5,81,0.00,CLR,,0.00,0.0,WeatherDisplay:10.37,2017-07-28 05:51:00,
2017-07-28 01:56:00,62.6,57.0,29.95,NNE,15,4.2,6.0,82,0.00,CLR,,0.00,0.0,WeatherDisplay:10.37,2017-07-28 05:56:00,
2017-07-28 02:01:00,62.5,56.9,29.95,NNE,13,3.2,3.6,82,0.00,CLR,,0.00,0.0,WeatherDisplay:10.37,2017-07-28 06:01:00,
2017-07-28 02:04:00,62.4,56.8,29.95,NNE,13,3.6,4.6,82,0.00,CLR,,0.00,0.0,WeatherDisplay:10.37,2017-07-28 06:04:00,
2017-07-28 02:09:00,62.3,56.7,29.95,NNW,348,3.7,4.8,82,0.00,CLR,,0.00,0.0,WeatherDisplay:10.37,2017-07-28 06:09:00,
2017-07-28 02:14:00,62.2,56.6,29.95,North,5,4.4,4.6,82,0.00,CLR,,0.00,0.0,WeatherDisplay:10.37,2017-07-28 06:14:00,
2017-07-28 02:19:00,62.1,56.5,29.94,NNE,15,4.1,4.6,82,0.00,CLR,,0.00,0.0,WeatherDisplay:10.37,2017-07-28 06:19:00,
2017-07-28 02:24:00,62.0,56.4,29.95,NNE,14,2.4,4.8,82,0.00,CLR,,0.00,0.0,WeatherDisplay:10.37,2017-07-28 06:24:00,
2017-07-28 02:29:00,61.8,56.6,29.94,North,10,3.9,4.6,83,0.00,CLR,,0.00,0.0,WeatherDisplay:10.37,2017-07-28 06:29:00,
2017-07-28 02:34:00,61.7,56.5,29.95,NNE,12,4.8,4.8,83,0.00,CLR,,0.00,0.0,WeatherDisplay:10.37,2017-07-28 06:34:00,
2017-07-28 02:39:00,61.6,56.4,29.94,NNE,13,4.3,4.6,83,0.00,CLR,,0.00,0.0,WeatherDisplay:10.37,2017-07-28 06:39:00,
2017-07-28 02:44:00,61.5,56.3,29.95,North,5,4.9,4.9,83,0.00,CLR,,0.00,0.0,WeatherDisplay:10.37,2017-07-28 06:44:00,
2017-07-28 02:49:00,61.4,56.2,29.95,North,360,5.2,6.9,83,0.00,CLR,,0.00,0.0,WeatherDisplay:10.37,2017-07-28 06:49:00,
2017-07-28 02:54:00,61.2,56.0,29.94,North,360,5.3,5.3,83,0.00,CLR,,0.00,0.0,WeatherDisplay:10.37,2017-07-28 06:54:00,
2017-07-28 02:59:00,61.1,56.2,29.94,North,360,4.7,6.0,84,0.00,CLR,,0.00,0.0,WeatherDisplay:10.37,2017-07-28 06:59:00,
2017-07-28 03:04:00,61.0,56.1,29.95,North,5,4.2,4.6,84,0.00,CLR,,0.00,0.0,WeatherDisplay:10.37,2017-07-28 07:04:00,
2017-07-28 03:09:00,60.8,55.9,29.94,North,5,3.1,3.5,84,0.00,CLR,,0.00,0.0,WeatherDisplay:10.37,2017-07-28 07:09:00,
2017-07-28 03:14:00,60.7,55.8,29.94,North,5,3.8,5.8,84,0.00,CLR,,0.00,0.0,WeatherDisplay:10.37,2017-07-28 07:14:00,
2017-07-28 03:19:00,60.6,56.1,29.95,North,9,3.9,4.6,85,0.00,CLR,,0.00,0.0,WeatherDisplay:10.37,2017-07-28 07:19:00,
2017-07-28 03:24:00,60.5,56.0,29.95,North,5,2.6,3.5,85,0.00,CLR,,0.00,0.0,WeatherDisplay:10.37,2017-07-28 07:24:00,
2017-07-28 03:29:00,60.4,55.9,29.95,North,5,3.6,6.0,85,0.00,CLR,,0.00,0.0,WeatherDisplay:10.37,2017-07-28 07:29:00,
2017-07-28 03:34:00,60.3,55.8,29.95,North,360,3.5,5.8,85,0.00,CLR,,0.00,0.0,WeatherDisplay:10.37,2017-07-28 07:34:00,
2017-07-28 03:39:00,60.2,55.7,29.95,North,360,3.5,4.6,85,0.00,CLR,,0.00,0.0,WeatherDisplay:10.37,2017-07-28 07:39:00,
2017-07-28 03:44:00,60.2,55.7,29.95,North,360,1.8,2.4,85,0.00,CLR,,0.00,0.0,WeatherDisplay:10.37,2017-07-28 07:44:00,
2017-07-28 03:49:00,60.1,55.9,29.95,North,360,1.8,3.5,86,0.00,CLR,,0.00,0.0,WeatherDisplay:10.37,2017-07-28 07:49:00,
2017-07-28 03:54:00,60.0,55.5,29.95,North,360,4.4,6.0,85,0.00,CLR,,0.00,0.0,WeatherDisplay:10.37,2017-07-28 07:54:00,
2017-07-28 03:59:00,59.9,55.4,29.95,North,360,4.0,4.6,85,0.00,CLR,,0.00,0.0,WeatherDisplay:10.37,2017-07-28 07:59:00,
2017-07-28 04:04:00,59.8,55.6,29.95,North,360,3.1,3.5,86,0.00,CLR,,0.00,0.0,WeatherDisplay:10.37,2017-07-28 08:04:00,
2017-07-28 04:09:00,59.7,55.5,29.95,North,360,3.0,4.6,86,0.00,CLR,,0.00,0.0,WeatherDisplay:10.37,2017-07-28 08:09:00,
2017-07-28 04:14:00,59.7,55.5,29.95,North,360,4.2,5.8,86,0.00,CLR,,0.00,0.0,WeatherDisplay:10.37,2017-07-28 08:14:00,
2017-07-28 04:19:00,59.6,55.4,29.96,North,360,3.6,3.6,86,0.00,CLR,,0.00,0.0,WeatherDisplay:10.37,2017-07-28 08:19:00,
2017-07-28 04:24:00,59.6,55.4,29.96,North,360,2.9,3.5,86,0.00,CLR,,0.00,0.0,WeatherDisplay:10.37,2017-07-28 08:24:00,
2017-07-28 04:29:00,59.5,55.3,29.96,North,360,5.1,6.9,86,0.00,CLR,,0.00,0.0,WeatherDisplay:10.37,2017-07-28 08:29:00,
2017-07-28 04:34:00,59.5,55.3,29.96,North,360,4.7,6.0,86,0.00,CLR,,0.00,0.0,WeatherDisplay:10.37,2017-07-28 08:34:00,
2017-07-28 04:39:00,59.5,55.3,29.96,North,360,5.2,5.8,86,0.00,CLR,,0.00,0.0,WeatherDisplay:10.37,2017-07-28 08:39:00,
2017-07-28 04:44:00,59.4,55.2,29.96,North,10,3.7,4.6,86,0.00,CLR,,0.00,0.0,WeatherDisplay:10.37,2017-07-28 08:44:00,
2017-07-28 04:49:00,59.3,54.8,29.96,NNE,12,4.6,4.8,85,0.00,CLR,,0.00,0.0,WeatherDisplay:10.37,2017-07-28 08:49:00,
2017-07-28 04:54:00,59.3,54.8,29.96,NNE,12,5.7,8.1,85,0.00,CLR,,0.00,0.0,WeatherDisplay:10.37,2017-07-28 08:54:00,
2017-07-28 04:59:00,59.3,54.8,29.96,North,11,4.2,5.8,85,0.00,CLR,,0.00,0.0,WeatherDisplay:10.37,2017-07-28 08:59:00,
2017-07-28 05:04:00,59.3,54.8,29.96,NNE,17,3.3,4.6,85,0.00,CLR,,0.00,0.0,WeatherDisplay:10.37,2017-07-28 09:04:00,
2017-07-28 05:09:00,59.3,54.8,29.96,NNE,18,2.0,3.5,85,0.00,CLR,,0.00,0.0,WeatherDisplay:10.37,2017-07-28 09:09:00,
2017-07-28 05:14:00,59.2,54.7,29.96,NNE,22,4.2,4.8,85,0.00,CLR,,0.00,0.0,WeatherDisplay:10.37,2017-07-28 09:14:00,
2017-07-28 05:19:00,59.2,54.7,29.96,NNE,24,3.8,5.8,85,0.00,CLR,,0.00,0.0,WeatherDisplay:10.37,2017-07-28 09:19:00,
2017-07-28 05:24:00,59.2,54.7,29.97,NNE,24,5.0,6.9,85,0.00,CLR,,0.00,0.0,WeatherDisplay:10.37,2017-07-28 09:24:00,
2017-07-28 05:29:00,59.1,54.3,29.97,NNE,19,4.3,5.8,84,0.00,CLR,,0.00,0.0,WeatherDisplay:10.37,2017-07-28 09:29:00,
2017-07-28 05:34:00,59.1,54.3,29.97,NNE,21,4.4,9.6,84,0.00,CLR,,0.00,0.0,WeatherDisplay:10.37,2017-07-28 09:34:00,
2017-07-28 05:39:00,59.1,54.3,29.97,North,10,5.2,8.1,84,0.00,CLR,,0.00,0.0,WeatherDisplay:10.37,2017-07-28 09:39:00,
2017-07-28 05:44:00,59.0,54.2,29.97,North,10,3.2,4.6,84,0.00,CLR,,0.00,0.0,WeatherDisplay:10.37,2017-07-28 09:44:00,
2017-07-28 05:49:00,59.0,54.2,29.97,NNE,18,2.7,3.5,84,0.00,CLR,,0.00,0.0,WeatherDisplay:10.37,2017-07-28 09:49:00,
2017-07-28 05:54:00,59.0,54.2,29.97,NNE,18,3.6,8.1,84,0.00,CLR,,0.00,5.0,WeatherDisplay:10.37,2017-07-28 09:54:00,
2017-07-28 05:55:00,59.0,54.2,29.97,NNE,19,1.0,4.6,84,0.00,CLR,,0.00,7.0,WeatherDisplay:10.37,2017-07-28 09:55:00,
2017-07-28 06:00:00,58.9,54.1,29.97,NNE,19,7.5,7.5,84,0.00,OVC,,0.00,0.0,WeatherDisplay:10.37,2017-07-28 10:00:00,
2017-07-28 06:05:00,58.9,54.1,29.98,NNE,20,1.9,3.5,84,0.00,OVC,,0.00,0.0,WeatherDisplay:10.37,2017-07-28 10:05:00,
2017-07-28 06:10:00,58.9,54.1,29.98,NNE,19,3.7,9.6,84,0.00,OVC,,0.00,0.0,WeatherDisplay:10.37,2017-07-28 10:10:00,
2017-07-28 06:15:00,58.8,54.0,29.98,NNE,19,3.7,8.1,84,0.00,BKN,,0.00,5.0,WeatherDisplay:10.37,2017-07-28 10:15:00,
2017-07-28 06:20:00,58.8,53.6,29.98,North,11,2.0,2.3,83,0.00,BKN,,0.00,9.0,WeatherDisplay:10.37,2017-07-28 10:20:00,
2017-07-28 06:25:00,58.8,53.6,29.98,North,10,0.6,3.5,83,0.00,BKN,,0.00,14.0,WeatherDisplay:10.37,2017-07-28 10:25:00,
2017-07-28 06:30:00,58.7,53.5,29.98,NNE,13,0.7,4.6,83,0.00,BKN,,0.00,18.0,WeatherDisplay:10.37,2017-07-28 10:30:00,
2017-07-28 06:35:00,58.7,53.5,29.99,NNE,14,3.0,5.8,83,0.00,BKN,,0.00,19.0,WeatherDisplay:10.37,2017-07-28 10:35:00,
2017-07-28 06:40:00,58.8,53.6,29.99,NNE,17,4.1,5.8,83,0.00,BKN,,0.00,25.0,WeatherDisplay:10.37,2017-07-28 10:40:00,
2017-07-28 06:45:00,58.8,53.3,29.99,NNE,26,6.3,9.2,82,0.00,BKN,,0.00,30.0,WeatherDisplay:10.37,2017-07-28 10:45:00,
2017-07-28 06:50:00,58.9,53.4,29.99,NNE,23,3.6,3.6,82,0.00,BKN,,0.00,35.0,WeatherDisplay:10.37,2017-07-28 10:50:00,
2017-07-28 06:55:00,58.9,53.4,29.99,NNE,28,4.7,4.7,82,0.00,BKN,,0.00,42.0,WeatherDisplay:10.37,2017-07-28 10:55:00,
2017-07-28 07:00:00,58.9,53.4,29.99,NNE,26,2.7,4.8,82,0.00,BKN,,0.00,44.0,WeatherDisplay:10.37,2017-07-28 11:00:00,
2017-07-28 07:05:00,58.9,53.4,29.99,NNE,14,3.9,4.6,82,0.00,BKN,,0.00,49.0,WeatherDisplay:10.37,2017-07-28 11:05:00,
2017-07-28 07:10:00,59.0,53.2,30.00,NE,36,2.6,5.8,81,0.00,BKN,,0.00,58.0,WeatherDisplay:10.37,2017-07-28 11:10:00,
2017-07-28 07:15:00,59.0,53.2,30.00,NNE,22,5.4,5.8,81,0.00,BKN,,0.00,62.0,WeatherDisplay:10.37,2017-07-28 11:15:00,
2017-07-28 07:20:00,59.1,52.9,30.00,North,5,1.3,4.8,80,0.00,BKN,,0.00,65.0,WeatherDisplay:10.37,2017-07-28 11:20:00,
2017-07-28 07:25:00,59.2,52.7,30.00,NNE,29,3.4,5.8,79,0.00,BKN,,0.00,70.0,WeatherDisplay:10.37,2017-07-28 11:25:00,
2017-07-28 07:30:00,59.2,52.7,30.00,NNE,19,0.8,5.8,79,0.00,BKN,,0.00,81.0,WeatherDisplay:10.37,2017-07-28 11:30:00,
2017-07-28 07:35:00,59.3,52.4,30.00,NE,40,4.2,6.9,78,0.00,BKN,,0.00,86.0,WeatherDisplay:10.37,2017-07-28 11:35:00,
2017-07-28 07:40:00,59.3,52.4,30.00,NNE,27,4.8,9.2,78,0.00,BKN,,0.00,88.0,WeatherDisplay:10.37,2017-07-28 11:40:00,
2017-07-28 07:45:00,59.4,52.5,30.00,NNE,15,1.3,3.6,78,0.00,BKN,,0.00,88.0,WeatherDisplay:10.37,2017-07-28 11:45:00,
2017-07-28 07:50:00,59.4,52.2,30.00,NNE,25,0.3,4.6,77,0.00,BKN,,0.00,83.0,WeatherDisplay:10.37,2017-07-28 11:50:00,
2017-07-28 07:55:00,59.5,52.3,30.00,NNE,23,3.2,6.0,77,0.00,BKN,,0.00,81.0,WeatherDisplay:10.37,2017-07-28 11:55:00,
2017-07-28 08:00:00,59.5,52.3,30.00,North,5,4.1,5.8,77,0.00,BKN,,0.00,100.0,WeatherDisplay:10.37,2017-07-28 12:00:00,
2017-07-28 08:05:00,59.6,52.4,30.00,North,9,3.8,6.0,77,0.00,BKN,,0.00,130.0,WeatherDisplay:10.37,2017-07-28 12:05:00,
2017-07-28 08:10:00,59.6,52.0,30.00,NNE,24,3.1,4.8,76,0.00,BKN,,0.00,144.0,WeatherDisplay:10.37,2017-07-28 12:10:00,
2017-07-28 08:15:00,59.8,51.9,30.01,NNE,26,5.6,10.4,75,0.00,BKN,,0.00,190.0,WeatherDisplay:10.37,2017-07-28 12:15:00,
2017-07-28 08:20:00,60.0,52.1,30.01,NNE,26,4.6,10.4,75,0.00,BKN,,0.00,297.0,WeatherDisplay:10.37,2017-07-28 12:20:00,
2017-07-28 08:26:00,60.4,52.1,30.01,NNE,31,6.1,9.2,74,0.00,SCT,,0.00,397.0,WeatherDisplay:10.37,2017-07-28 12:26:00,
2017-07-28 08:31:00,60.8,52.5,30.01,NNE,26,5.1,6.9,74,0.00,FEW,,0.00,461.0,WeatherDisplay:10.37,2017-07-28 12:31:00,